Overview Statistics Trail Chart Weather Telemetry Raw packets
 

This is the latest recevied weather packets stored in our database for station/object K5OLV. If no packets are shown the sender has not sent any weather packets the latest 10 day(s).

<< 35 36 37 38 39 40 41 >>
Time Temp. Humidity Pressure Rain* Wind** Luminosity Snow
1788415620 24.44° C 85% 1016.7 hPa 0 mm - 0 W/m² -
1788415314 24.44° C 85% 1016.6 hPa 0 mm - 0 W/m² -
1788415012 24.44° C 84% 1016.6 hPa 0 mm - 0 W/m² -
1788414710 25° C 84% 1016.4 hPa 0 mm - 0 W/m² -
1788414406 24.44° C 84% 1016.5 hPa 0 mm - 0 W/m² -
1788414101 24.44° C 84% 1016.5 hPa 0 mm - 0 W/m² -
1788413797 24.44° C 85% 1016.5 hPa 0 mm - 0 W/m² -
1788413492 24.44° C 86% 1016.5 hPa 0 mm - 0 W/m² -
1788413188 24.44° C 86% 1016.7 hPa 0 mm - 0 W/m² -
1788412883 24.44° C 85% 1016.5 hPa 0 mm - 0 W/m² -
1788412578 24.44° C 86% 1016.5 hPa 0 mm - 0 W/m² -
1788412274 24.44° C 86% 1016.6 hPa 0 mm - 0 W/m² -
1788411974 25° C 85% 1016.6 hPa 0 mm - 0 W/m² -
1788411669 25° C 82% 1016.5 hPa 0 mm - 0 W/m² -
1788411368 25° C 83% 1016.6 hPa 0 mm - 0 W/m² -
1788411065 25° C 83% 1016.6 hPa 0 mm - 0 W/m² -
1788410760 25.56° C 82% 1016.7 hPa 0 mm - 0 W/m² -
1788410456 25.56° C 82% 1016.3 hPa 0 mm - 0 W/m² -
1788410152 25.56° C 82% 1016.4 hPa 0 mm - 0 W/m² -
1788409851 25.56° C 82% 1016.4 hPa 0 mm - 0 W/m² -
1788409545 25.56° C 80% 1016.5 hPa 0 mm - 0 W/m² -
1788409241 25.56° C 80% 1016.5 hPa 0 mm - 0 W/m² -
1788408938 25.56° C 80% 1016.4 hPa 0 mm - 0 W/m² -
1788408633 25.56° C 82% 1016.3 hPa 0 mm - 0 W/m² -
1788408331 25.56° C 82% 1016.6 hPa 0 mm - 0 W/m² -

* Rain latest hour (hover to see other rain measurements)
** Current wind speed in m/s (hover to see current wind gust speed)